TimeAKST,TemperatureF,Dew PointF,Humidity,Sea Level PressureIn,VisibilityMPH,Wind Direction,Wind SpeedMPH,Gust SpeedMPH,PrecipitationIn,Events,Conditions,WindDirDegrees,DateUTC
12:54 AM,19.0,15.1,85,30.21,10.0,WNW,9.2,-,N/A,,Clear,290,2013-01-10 09:54:00
1:54 AM,19.0,15.1,85,30.21,10.0,WNW,6.9,-,N/A,,Clear,300,2013-01-10 10:54:00
3:54 AM,15.1,12.9,91,30.20,10.0,WNW,5.8,-,N/A,,Clear,300,2013-01-10 12:54:00
4:54 AM,15.1,12.9,91,30.20,10.0,WNW,3.5,-,N/A,,Partly Cloudy,300,2013-01-10 13:54:00
5:54 AM,12.0,10.0,92,30.19,10.0,WNW,11.5,-,N/A,,Mostly Cloudy,290,2013-01-10 14:54:00
6:54 AM,12.0,9.0,88,30.20,10.0,WNW,10.4,-,N/A,,Clear,290,2013-01-10 15:54:00
7:54 AM,12.0,9.0,88,30.20,10.0,WNW,11.5,-,N/A,,Scattered Clouds,290,2013-01-10 16:54:00
8:25 AM,12.2,8.6,85,30.20,10.0,WNW,11.5,-,N/A,,Overcast,290,2013-01-10 17:25:00
8:35 AM,14.0,10.4,86,30.20,10.0,WNW,13.8,-,N/A,,Overcast,290,2013-01-10 17:35:00
8:54 AM,16.0,12.0,84,30.20,10.0,WNW,13.8,-,N/A,,Overcast,290,2013-01-10 17:54:00
9:54 AM,16.0,12.0,84,30.20,10.0,WNW,11.5,-,N/A,,Overcast,290,2013-01-10 18:54:00
10:54 AM,16.0,12.9,88,30.20,10.0,WNW,12.7,-,N/A,,Overcast,290,2013-01-10 19:54:00
11:54 AM,18.0,12.9,81,30.21,10.0,WNW,12.7,-,N/A,,Overcast,290,2013-01-10 20:54:00
12:54 PM,19.0,12.9,77,30.21,10.0,WNW,15.0,-,N/A,,Overcast,290,2013-01-10 21:54:00
1:35 PM,21.2,14.0,74,30.20,8.0,WNW,15.0,-,0.00,Snow,Light Snow,290,2013-01-10 22:35:00
1:54 PM,19.9,14.0,78,30.21,6.0,WNW,12.7,-,0.00,Snow,Light Snow,290,2013-01-10 22:54:00
2:54 PM,19.0,15.1,85,30.22,10.0,WNW,12.7,-,0.00,,Overcast,290,2013-01-10 23:54:00
3:54 PM,21.9,14.0,72,30.23,10.0,WNW,11.5,-,N/A,,Overcast,290,2013-01-11 00:54:00
4:54 PM,19.0,15.1,85,30.24,10.0,WNW,12.7,-,N/A,,Overcast,290,2013-01-11 01:54:00
5:54 PM,19.0,14.0,81,30.25,10.0,WNW,13.8,-,N/A,,Overcast,290,2013-01-11 02:54:00
6:54 PM,18.0,14.0,84,30.27,10.0,WNW,13.8,-,N/A,,Overcast,290,2013-01-11 03:54:00
7:54 PM,17.1,12.9,84,30.27,10.0,WNW,12.7,-,N/A,,Overcast,290,2013-01-11 04:54:00
8:30 PM,17.6,12.2,79,30.28,10.0,WNW,15.0,-,N/A,,Overcast,290,2013-01-11 05:30:00
8:54 PM,18.0,12.9,81,30.30,10.0,WNW,16.1,-,N/A,,Overcast,300,2013-01-11 05:54:00
9:41 PM,17.6,12.2,79,30.29,10.0,WNW,11.5,-,N/A,,Overcast,290,2013-01-11 06:41:00
9:54 PM,17.1,12.9,84,30.29,10.0,WNW,11.5,-,N/A,,Overcast,300,2013-01-11 06:54:00
10:54 PM,15.1,10.9,84,30.28,10.0,WNW,17.3,-,N/A,,Overcast,290,2013-01-11 07:54:00
11:15 PM,19.4,14.0,80,30.28,10.0,WNW,15.0,24.2,N/A,,Overcast,300,2013-01-11 08:15:00
11:54 PM,16.0,12.0,84,30.30,10.0,WNW,17.3,-,N/A,,Overcast,300,2013-01-11 08:54:00